TIME,�g��[���C[MJ/h],����[MJ/h],�Ɩ�[MJ/h],�~�[[MJ/h],�①��[MJ/h],��y���[MJ/h],�Ǝ��q��[MJ/h],���̑��s��[MJ/h],�u�����`������[MJ/h]
2005/1/1 0:00,3.2184,0,0.61344,0.02304,0.2232,0.42192,0.09072,0,-0.06192
2005/1/1 0:15,3.17376,0,0.6048,0.0216,0,0.41904,0.0864,0,-0.03024
2005/1/1 0:30,1.16496,0,0.42912,0.02304,0.3024,0.29664,0.09504,0,0.00144
2005/1/1 0:45,0,0,0.27936,0.0216,0.21024,0.2376,0.1296,0,0.01008
2005/1/1 1:00,0,0,0.27648,0.0216,0,0.2376,0.10224,0,0.03024
2005/1/1 1:15,0,0,0.27792,0.0288,0.28224,0.2376,0.1008,0,-0.00576
2005/1/1 1:30,0,0,0.27072,0.02304,0.21744,0.2376,0.10368,0,0.01296
2005/1/1 1:45,0,0,0.2736,0.0216,0,0.2376,0.10224,0,0.02448
2005/1/1 2:00,0,0,0.2736,0.02736,0.24192,0.2376,0.13536,0,-0.00144
2005/1/1 2:15,0,0,0.27648,0.02592,0.22896,0.2376,0.10656,0,-0.00288
2005/1/1 2:30,0,0,0.2664,0.0216,0,0.2376,0.10944,0,0.03024
2005/1/1 2:45,0,0,0.26496,0.02304,0.17136,0.2376,0.10512,0,0.0072
2005/1/1 3:00,0,0,0.26928,0.02448,0.29232,0.2376,0.10512,0,-0.00576
2005/1/1 3:15,0,0,0.25056,0.0216,0,0.2376,0.12672,0,0.02448
2005/1/1 3:30,0,0,0.26352,0.02304,0.08784,0.2376,0.09648,0,0.03744
2005/1/1 3:45,0,0,0.2592,0.02736,0.37008,0.2376,0.14544,0,-0.02304
2005/1/1 4:00,0,0,0.26928,0.0216,0,0.2376,0.1008,0,0.036
2005/1/1 4:15,0,0,0.26784,0.0216,0,0.2376,0.10656,0,0.02448
2005/1/1 4:30,0,0,0.27792,0.0288,0.41472,0.2376,0.108,0,-0.02448
2005/1/1 4:45,0,0,0.2664,0.0216,0.03024,0.2376,0.10512,0,0.01872
2005/1/1 5:00,0,0,0.2808,0.0216,0,0.2376,0.1368,0,0.0216
2005/1/1 5:15,0,0,0.27936,0.02592,0.27792,0.2376,0.10944,0,-0.00576
2005/1/1 5:30,0,0,0.27216,0.02592,0.18288,0.2376,0.10656,0,0.0144
2005/1/1 5:45,0,0,0.26784,0.0216,0,0.2376,0.11232,0,0.02736
2005/1/1 6:00,0,0,0.27504,0.02304,0.13968,0.2376,0.13392,0,0.0072
2005/1/1 6:15,0,0,0.27072,0.02592,0.29088,0.2376,0.108,0,-0.00576
2005/1/1 6:30,0,0,0.26928,0.0216,0,0.2376,0.108,0,0.03168
2005/1/1 6:45,0,0,0.27072,0.02304,0.00432,0.2376,0.108,0,0.03024
2005/1/1 7:00,1.76688,0,0.36576,0.03024,0.43632,0.2448,0.144,0,-0.04896
2005/1/1 7:15,5.20992,0,0.57744,0.0216,0.036,0.2376,0.10944,0,0.01008
2005/1/1 7:30,3.97584,0,0.60336,0.0216,0.00144,0.2376,0.11088,0,0.03024
2005/1/1 7:45,4.21344,0,0.79488,0.02736,0.40608,0.2376,0.108,0,-0.108
2005/1/1 8:00,4.00464,0,0.89712,0.43632,0.08064,0.26352,0.13536,0,-0.13968
2005/1/1 8:15,2.91168,0,1.04976,0.05328,0.02736,0.2376,0.5904,0,-0.08064
2005/1/1 8:30,3.58416,0,0.81648,0.02448,0.324,0.25056,0.10944,0,-0.05328
2005/1/1 8:45,9.98496,0,1.88352,0.02304,0.1584,0.3672,0.10368,0,-0.57744
2005/1/1 9:00,4.96368,0,1.9008,0.0216,0,0.27648,0.5544,0,-0.30816
2005/1/1 9:15,4.1544,0,1.36368,0.03312,0.28656,0.25056,0.12096,0,-0.44208
2005/1/1 9:30,0,0,0.25344,0.0216,0.08352,0.2376,0.11088,0,0.01728
2005/1/1 9:45,0,0,0.17712,0.0216,0,0.2376,0.09936,0,0.03312
2005/1/1 10:00,0,0,0.18144,0.02304,0.3672,0.2376,0.09072,0,-0.00288
2005/1/1 10:15,0,0,0.18144,0.02304,0.08928,0.2376,0.12528,0,0.03024
2005/1/1 10:30,0,0,0.16704,0.0216,0,0.2376,0.09216,0,0.06192
2005/1/1 10:45,0,0,0.16992,0.02736,0.32544,0.23904,0.09072,0,0.02016
2005/1/1 11:00,0,0,0.17424,0.02304,0.09648,0.2376,0.0936,0,0.04896
2005/1/1 11:15,0,0,0.18144,0.0216,0,0.2376,0.13536,0,0.036
2005/1/1 11:30,0,0,0.17424,0.02736,0.31392,0.2376,0.09504,0,0.03024
2005/1/1 11:45,0,0,0.17424,0.02304,0.06336,0.2376,0.0936,0,0.04032
2005/1/1 12:00,0,0,0.16992,0.0216,0,0.24048,0.09216,0,0.05904
2005/1/1 12:15,0,0,0.17568,0.02592,0.3024,0.2376,0.09216,0,0.01584
2005/1/1 12:30,0,0,0.18288,0.02448,0.13536,0.2376,0.13104,0,0.0432
2005/1/1 12:45,0,0,0.17712,0.0216,0,0.2376,0.09792,0,0.04608
2005/1/1 13:00,0,0,0.31392,0.02592,0.23616,0.23904,0.09648,0,0.01728
2005/1/1 13:15,0,0,0.22896,0.02304,0.17568,0.2376,0.09504,0,0.02304
2005/1/1 13:30,3.132,0,0.41904,0.0216,0,0.2376,0.75744,0,-0.11376
2005/1/1 13:45,4.50576,0,0.61488,0.02592,0.26784,0.2376,0.10656,0,-0.04608
2005/1/1 14:00,3.28032,0,1.68624,0.02448,0.17856,0.2376,0.108,0,-0.08208
2005/1/1 14:15,2.7864,0,1.73664,1.03536,0.02304,0.45504,0.108,0,-0.20448
2005/1/1 14:30,3.54672,0,0.48528,1.25856,0.24336,0.59184,0.14112,0,-0.1296
2005/1/1 14:45,3.19104,0,0.39168,0.02304,0.22608,0.27792,0.10224,0,-0.02736
2005/1/1 15:00,3.02544,0,0.22608,0.0216,0,0.2376,0.09792,0,-0.00144
2005/1/1 15:15,2.92896,0,0.17424,0.02448,0.20736,0.2376,0.09504,0,-0.0144
2005/1/1 15:30,2.988,0,0.49104,0.44208,0.26064,0.2376,0.12672,0,-0.08928
2005/1/1 15:45,3.1248,0,0.68832,0.0216,0,0.2376,0.09648,0,-0.03744
2005/1/1 16:00,3.04992,0,0.71424,0.0216,0.21168,0.2376,0.09792,0,-0.05616
2005/1/1 16:15,3.14784,0,0.68544,0.02448,0.26352,0.2376,0.0936,0,-0.02448
2005/1/1 16:30,3.19824,0,0.83952,0.0216,0,0.24048,0.09648,0,-0.04176
2005/1/1 16:45,3.13056,0,1.5336,0.02448,0.19872,0.24912,0.12672,0,-0.16992
2005/1/1 17:00,3.06432,0,1.76976,0.02736,0.24912,0.24624,0.09216,0,-0.15552
2005/1/1 17:15,5.48064,0,1.84176,0.0216,0,0.45648,0.0936,0,-0.17856
2005/1/1 17:30,6.2496,0,1.15776,0.02304,0.2376,0.2376,0.09504,0,-0.05184
2005/1/1 17:45,5.05584,0,1.14336,0.02736,0.26208,0.2376,0.12384,0,-0.05328
2005/1/1 18:00,4.85856,0,1.04976,0.0216,0,0.23904,0.09216,0,-0.04032
2005/1/1 18:15,4.71168,0,1.12896,0.02448,0.21312,0.45504,0.09792,0,-0.10512
2005/1/1 18:30,4.71312,0,1.1376,0.0288,0.28656,0.45216,0.14112,0,-0.08064
2005/1/1 18:45,4.4496,0,1.07424,0.0216,0,0.5616,0.10512,0,-0.07488
2005/1/1 19:00,2.69856,0,1.19952,1.73088,0.21312,0.58896,0.10224,0,-0.04176
2005/1/1 19:15,3.05568,0,1.78416,0.96336,0.28224,0.59472,0.09504,0,-0.19728
2005/1/1 19:30,4.068,0,2.05344,0.09072,0,0.468,0.09648,0,-0.11232
2005/1/1 19:45,3.2256,0,2.18736,0.07776,0.2376,0.39024,0.1296,0,-0.1512
2005/1/1 20:00,2.64816,0,2.67696,0.06048,0.28512,0.57312,0.09504,0,-0.21024
2005/1/1 20:15,2.66832,0,2.85408,0.0216,0,0.73728,0.13392,0,-0.20448
2005/1/1 20:30,2.76624,0,2.65248,0.02304,0.21888,1.02672,0.08928,0,-0.23472
2005/1/1 20:45,2.664,0,2.54016,0.02736,0.28944,0.6264,0.09648,0,-0.18576
2005/1/1 21:00,3.41856,0,2.13264,0.0216,0,0.19008,0.13248,0,-0.1224
2005/1/1 21:15,3.10176,0,2.27232,0.02304,0.19008,0.13248,0.0936,0,-0.14976
2005/1/1 21:30,5.10912,0,2.08944,0.0216,0.31248,0.13392,0.43632,0,-0.28656
2005/1/1 21:45,2.9736,0,1.88784,0.0216,0,0.13104,0.09504,0,-0.08928
2005/1/1 22:00,3.20112,0,2.05488,0.02448,0.1728,0.13248,0.1296,0,-0.1728
2005/1/1 22:15,2.86416,0,1.83168,0.02592,0.47952,0.13392,0.09504,0,-0.17424
2005/1/1 22:30,3.0816,0,1.34784,0.0216,0.54,0.23328,1.11888,0,-0.26496
2005/1/1 22:45,3.12336,0,1.25424,0.036,0.53136,0.34416,0.09648,0,-0.14832
2005/1/1 23:00,3.08592,0,1.1016,0.03024,0.42192,0.4032,0.13248,0,-0.11376
2005/1/1 23:15,3.00672,0,1.38528,0.0288,0.5112,0.29664,0.0936,0,-0.0792
2005/1/1 23:30,5.9688,0,1.2672,0.02304,0.4824,0.28656,0.09216,0,-0.08208
2005/1/1 23:45,2.05344,0,1.00512,0.02592,0.1512,0.24624,0.1008,0,-0.01584
2005/1/2 0:00,2.42784,0,0.75312,0.0216,0.0648,0.324,0.14544,0,-0.00576
2005/1/2 0:15,2.34576,0,0.75024,0.02736,0.45072,0.31536,0.13536,0,-0.0576
2005/1/2 0:30,2.4192,0,0.72576,0.02304,0.06912,0.1512,0.108,0,0.0216
2005/1/2 0:45,2.36592,0,0.7344,0.0216,0.02016,0.1512,0.10512,0,0.02016
2005/1/2 1:00,2.31552,0,0.74016,0.03312,0.44928,0.14976,0.13824,0,-0.0288
2005/1/2 1:15,2.34,0,0.73296,0.0216,0.0144,0.1584,0.10368,0,0.0216
2005/1/2 1:30,1.2528,0,0.53712,0.0216,0.0144,0.2232,0.10224,0,0.04176
2005/1/2 1:45,0,0,0.26208,0.0288,0.44784,0.22608,0.10512,0,-0.01296
2005/1/2 2:00,0,0,0.26496,0.02448,0.0576,0.22032,0.1368,0,0.02304
2005/1/2 2:15,0,0,0.26784,0.0216,0,0.18432,0.10224,0,0.03312
2005/1/2 2:30,0,0,0.25632,0.02448,0.39456,0.1728,0.1008,0,0
2005/1/2 2:45,0,0,0.26352,0.02448,0.0792,0.15984,0.13968,0,0.02592
2005/1/2 3:00,0,0,0.26064,0.0216,0,0.1512,0.10512,0,0.04752
2005/1/2 3:15,0,0,0.26352,0.03024,0.30672,0.14688,0.10368,0,0.0072
2005/1/2 3:30,0,0,0.26208,0.02304,0.17856,0.14256,0.108,0,0.03168
2005/1/2 3:45,0,0,0.26784,0.0216,0,0.144,0.13536,0,0.03888
2005/1/2 4:00,0,0,0.25344,0.02448,0.18288,0.14544,0.1008,0,0.03168
2005/1/2 4:15,0,0,0.26496,0.02592,0.252,0.144,0.10944,0,0.02304
2005/1/2 4:30,0,0,0.26208,0.0216,0,0.14688,0.10368,0,0.05616
2005/1/2 4:45,0,0,0.2592,0.02304,0.07488,0.14544,0.13968,0,0.03888
2005/1/2 5:00,0,0,0.26064,0.02736,0.396,0.14544,0.11088,0,0.0072
2005/1/2 5:15,0,0,0.26496,0.0216,0,0.14688,0.10944,0,0.0432
2005/1/2 5:30,0,0,0.26352,0.0216,0,0.14544,0.11088,0,0.05184
2005/1/2 5:45,0,0,0.26496,0.02592,0.35424,0.14688,0.14112,0,0.01152
2005/1/2 6:00,0,0,0.26496,0.02304,0.072,0.14544,0.10944,0,0.04464
2005/1/2 6:15,0,0,0.26496,0.0216,0,0.14688,0.10656,0,0.04464
2005/1/2 6:30,0,0,0.26496,0.0288,0.21456,0.144,0.10368,0,0.03024
2005/1/2 6:45,0,0,0.25488,0.02448,0.2088,0.144,0.14112,0,0.03312
2005/1/2 7:00,0,0,0.26064,0.0216,0,0.1512,0.108,0,0.0504
2005/1/2 7:15,4.40784,0,0.43488,0.0216,0.0576,0.40896,0.11088,0,-0.02736
2005/1/2 7:30,5.30784,0,0.864,0.0288,0.38736,0.41328,0.10944,0,-0.0792
2005/1/2 7:45,4.03632,0,1.23408,0.0216,0,0.14544,0.14112,0,-0.01008
2005/1/2 8:00,3.89376,0,1.6272,0.0216,0,0.14544,0.10368,0,-0.04032
2005/1/2 8:15,3.5496,0,1.98864,0.02736,0.36288,0.144,0.14544,0,-0.14256
2005/1/2 8:30,2.6064,0,1.60272,0.52416,0.13248,0.14256,0.14256,0,-0.10224
2005/1/2 8:45,6.32304,0,1.19376,0.0216,0,0.46656,0.17856,0,-0.10368
2005/1/2 9:00,4.01328,0,1.27584,0.0216,0.24912,0.52992,1.8072,0,-0.42192
2005/1/2 9:15,6.2856,0,1.10016,0.02448,0.2016,0.15696,2.63952,0,-0.80496
2005/1/2 9:30,3.90816,0,0.80496,0.0216,0,0.14112,0.10224,0,-0.24336
2005/1/2 9:45,1.6272,0,0.44784,0.0216,0.19008,0.144,0.12528,0,0.01152
2005/1/2 10:00,1.31472,0,0.5112,0.02736,0.29088,0.14688,0.09216,0,-0.00864
2005/1/2 10:15,1.332,0,0.58752,0.0216,0,0.1512,0.13248,0,0.01008
2005/1/2 10:30,1.1952,0,0.59184,0.02448,0.12672,0.14832,0.09936,0,-0.00288
2005/1/2 10:45,1.11456,0,0.57888,0.03024,0.31968,0.14688,0.1008,0,-0.0216
2005/1/2 11:00,1.05264,0,0.55584,0.0216,0,0.19872,0.1008,0,0.01008
2005/1/2 11:15,1.02816,0,0.33984,0.02304,0.11952,0.24768,0.12528,0,0.0216
2005/1/2 11:30,1.07424,0,0.3312,0.0216,0.38304,0.14256,0.1008,0,-0.00432
2005/1/2 11:45,0.96336,0,0.3528,0.02304,0,0.144,0.09648,0,0.0288
2005/1/2 12:00,1.01232,0,0.72432,0.63648,0.1008,0.35856,0.12672,0,-0.08208
2005/1/2 12:15,0.9216,0,0.78336,0.02736,0.3744,0.35856,0.09648,0,-0.04752
2005/1/2 12:30,0.9504,0,0.7848,0.0216,0,0.36432,0.09792,0,-0.00432
2005/1/2 12:45,1.24128,0,0.87408,0.0216,0.08208,0.19728,0.09648,0,0.02304
2005/1/2 13:00,1.1736,0,0.89712,0.03168,0.41904,0.14112,0.13248,0,-0.00864
2005/1/2 13:15,1.01088,0,0.9216,0.0216,0,0.14112,0.0936,0,0.03888
2005/1/2 13:30,1.06848,0,1.4256,0.02304,0.04032,0.14112,0.55872,0,-0.0792
2005/1/2 13:45,1.15056,0,1.14624,0.72576,0.46368,0.14112,0.10368,0,-0.11088
2005/1/2 14:00,1.10736,0,1.15776,0.02304,0.0432,0.14256,0.13968,0,-0.00144
2005/1/2 14:15,2.70576,0,1.45872,0.0216,0,0.13968,0.10368,0,-0.2304
2005/1/2 14:30,2.7648,0,1.5552,0.02448,0.4464,0.14112,0.10512,0,-0.432
2005/1/2 14:45,0.94608,0,0.90144,0.02304,0.06336,0.14112,0.57024,0,-0.16992
2005/1/2 15:00,3.6792,0,1.11024,0.0216,0,0.13968,0.67392,0,-0.54432
2005/1/2 15:15,3.74688,0,1.2672,0.02736,0.43632,0.13968,0.20016,0,-0.56016
2005/1/2 15:30,3.5064,0,1.30464,0.02304,0.0576,0.13824,0.10368,0,-0.46512
2005/1/2 15:45,3.8808,0,0.92736,0.0216,0,0.14112,0.1008,0,0.03024
2005/1/2 16:00,3.72672,0,1.65456,0.0288,0.43344,0.15984,0.13248,0,-0.17136
2005/1/2 16:15,4.9464,0,1.65312,0.0216,0.08784,0.216,0.10224,0,-0.2736
2005/1/2 16:30,3.456,0,1.43568,0.0216,0,0.27936,0.09936,0,-0.07488
2005/1/2 16:45,3.21696,0,1.39248,0.03024,0.40608,0.14688,0.09648,0,-0.09216
2005/1/2 17:00,3.54816,0,1.19952,0.0216,0.08784,0.144,0.13536,0,-0.10944
2005/1/2 17:15,5.53392,0,1.24128,0.0216,0,0.144,0.09648,0,-0.08064
2005/1/2 17:30,4.01904,0,1.29456,0.03168,0.41184,0.14544,0.09072,0,-0.11808
2005/1/2 17:45,4.0824,0,1.33488,0.02592,0.11808,0.144,0.08928,0,-0.05472
2005/1/2 18:00,3.81312,0,1.53504,0.0216,0,0.14544,0.08784,0,-0.03168
2005/1/2 18:15,3.82752,0,1.46736,0.036,0.39168,0.14256,0.11952,0,-0.08784
2005/1/2 18:30,3.92688,0,1.6776,0.02448,0.13968,0.14688,0.08928,0,-0.0504
2005/1/2 18:45,3.84912,0,1.656,0.0216,0,0.16416,0.1008,0,-0.05904
2005/1/2 19:00,3.94272,0,1.5192,0.03024,0.39456,0.14112,0.09792,0,-0.09216
2005/1/2 19:15,3.77568,0,1.37664,0.02592,0.1296,0.14832,0.1224,0,-0.0648
2005/1/2 19:30,3.68784,0,1.95264,0.0216,0,0.14688,0.09072,0,-0.11376
2005/1/2 19:45,3.70512,0,2.2824,0.02592,0.40032,0.13968,0.0864,0,-0.18144
2005/1/2 20:00,4.69872,0,2.83248,0.0216,0.13392,0.1584,0.08352,0,-0.29376
2005/1/2 20:15,11.24784,0,2.66544,0.0216,0,0.216,0.12816,0,-0.71136
2005/1/2 20:30,11.72736,0,2.77056,0.0288,0.3816,0.216,0.08928,0,-0.792
2005/1/2 20:45,11.82384,0,2.93472,0.02304,0.13104,0.216,0.08928,0,-0.75024
2005/1/2 21:00,10.72224,0,2.45808,0.0216,0,0.216,0.09072,0,-0.684
2005/1/2 21:15,10.36656,0,2.65536,0.03168,0.38448,0.21744,0.09936,0,-0.62208
2005/1/2 21:30,3.56976,0,2.60928,0.02304,0.11808,0.216,0.11808,0,-0.20448
2005/1/2 21:45,3.87072,0,2.41056,0.0216,0,0.2088,0.4968,0,-0.21744
2005/1/2 22:00,3.89664,0,2.4552,0.03024,0.37872,0.1944,0.08496,0,-0.19728
2005/1/2 22:15,3.76704,0,2.70432,0.02304,0.10368,0.1944,0.10512,0,-0.22752
2005/1/2 22:30,6.40512,0,3.01536,0.0216,0,0.2016,1.47456,0,-0.6408
2005/1/2 22:45,11.64672,0,2.8872,0.03024,0.3888,0.34704,0.41472,0,-0.85968
2005/1/2 23:00,9.90432,0,2.1168,0.02304,0.13536,0.55008,0.0864,0,-0.73872
2005/1/2 23:15,2.91312,0,1.40112,0.0216,0,0.35856,0.11808,0,-0.18288
2005/1/2 23:30,2.06208,0,1.05408,0.03024,0.35856,0.23328,0.09072,0,-0.11808
2005/1/2 23:45,1.47312,0,0.91872,0.02304,0.15408,0.16272,0.0864,0,-0.03312
2005/1/3 0:00,1.14912,0,0.76032,0.0216,0,0.13968,0.12384,0,0.02016
2005/1/3 0:15,1.22112,0,0.75744,0.03024,0.33552,0.19872,0.08928,0,-0.03024
2005/1/3 0:30,1.33488,0,0.76176,0.02592,0.15984,0.13824,0.08208,0,-0.01152
2005/1/3 0:45,1.24128,0,0.75168,0.0216,0,0.13968,0.09216,0,0.03024
2005/1/3 1:00,1.13184,0,0.7632,0.0288,0.29088,0.14112,0.11808,0,-0.02016
2005/1/3 1:15,1.1952,0,0.75744,0.02592,0.19584,0.14256,0.09072,0,-0.00432
2005/1/3 1:30,1.18512,0,0.75312,0.0216,0,0.14112,0.08784,0,0.0216
2005/1/3 1:45,1.16784,0,0.7632,0.02592,0.25056,0.14256,0.08496,0,-0.00864
2005/1/3 2:00,0.05328,0,0.4896,0.02592,0.22752,0.216,0.08784,0,0
2005/1/3 2:15,0,0,0.2664,0.0216,0,0.13968,0.12384,0,0.0216
2005/1/3 2:30,0,0,0.2664,0.02448,0.19008,0.14112,0.08784,0,0.01152
2005/1/3 2:45,0,0,0.26208,0.02592,0.26496,0.14256,0.0936,0,0.01728
2005/1/3 3:00,0,0,0.26064,0.0216,0,0.14256,0.09216,0,0.04608
2005/1/3 3:15,0,0,0.26208,0.0216,0.1368,0.14112,0.0936,0,0.02448
2005/1/3 3:30,0,0,0.26496,0.02592,0.33984,0.14256,0.12816,0,-0.01152
2005/1/3 3:45,0,0,0.28224,0.0216,0,0.14112,0.09216,0,0.04176
2005/1/3 4:00,0,0,0.26064,0.0216,0.05616,0.14256,0.0864,0,0.03312
2005/1/3 4:15,0,0,0.27072,0.02592,0.39456,0.144,0.09504,0,-0.00144
2005/1/3 4:30,0,0,0.26352,0.0216,0,0.14112,0.12384,0,0.04608
2005/1/3 4:45,0,0,0.26208,0.0216,0,0.144,0.0936,0,0.03888
2005/1/3 5:00,0,0,0.26208,0.03168,0.41616,0.14688,0.09936,0,0
2005/1/3 5:15,0,0,0.2736,0.02304,0.04608,0.144,0.0936,0,0.04608
2005/1/3 5:30,0,0,0.26208,0.0216,0,0.14256,0.09936,0,0.04752
2005/1/3 5:45,0,0,0.27216,0.02736,0.31536,0.144,0.09792,0,0.00576
2005/1/3 6:00,0,0,0.26352,0.02448,0.11664,0.14544,0.13104,0,0.03024
2005/1/3 6:15,0,0,0.27216,0.0216,0,0.144,0.09504,0,0.0432
2005/1/3 6:30,0,0,0.26784,0.02736,0.2232,0.14256,0.09504,0,0.00432
2005/1/3 6:45,0,0,0.26928,0.02304,0.21888,0.144,0.0936,0,0.0216
2005/1/3 7:00,0,0,0.2664,0.0216,0,0.14976,0.1296,0,0.0432
2005/1/3 7:15,0,0,0.27216,0.02448,0.108,0.144,0.09792,0,0.0432
2005/1/3 7:30,0,0,0.2808,0.02736,0.3456,0.14256,0.10224,0,0.01296
2005/1/3 7:45,2.54304,0,0.87696,0.0216,0,0.14112,0.84672,0,-0.1368
2005/1/3 8:00,5.81184,0,0.63648,0.5904,0.08208,0.14256,0.10944,0,-0.07488
2005/1/3 8:15,3.7368,0,0.57888,0.02448,0.45792,0.13968,0.1368,0,-0.02736
2005/1/3 8:30,3.40848,0,0.66384,0.0288,0.53424,0.1656,0.1008,0,-0.04608
2005/1/3 8:45,7.1424,0,1.3032,0.02304,0.53712,0.26208,0.1008,0,-0.32256
2005/1/3 9:00,9.41472,0,1.65168,0.02592,0.4392,0.2592,0.58464,0,-0.80064
2005/1/3 9:15,9.40752,0,1.23264,0.0288,0.51264,0.2592,0.0936,0,-0.68544
2005/1/3 9:30,6.36912,0,1.07424,0.02448,0.47376,0.2592,0.09504,0,-0.45792
2005/1/3 9:45,9.28656,0,1.24128,0.02304,0.1368,0.26064,0.09504,0,-0.62208
2005/1/3 10:00,10.93968,0,1.31328,0.02304,0.08208,0.2592,0.12384,0,-0.62496
2005/1/3 10:15,7.87968,0,1.39392,0.03024,0.4536,0.26064,0.39312,0,-0.66096
2005/1/3 10:30,8.70336,0,1.24128,0.0216,0,0.2592,0.0936,0,-0.7416
2005/1/3 10:45,5.17104,0,1.20528,0.02448,0.1008,0.21456,0.1224,0,-0.504
2005/1/3 11:00,1.60704,0,0.80064,0.02304,0.45216,0.13968,0.0792,0,-0.15552
2005/1/3 11:15,1.47168,0,0.76032,1.51632,0.02448,0.14112,0.08928,0,-0.20736
2005/1/3 11:30,1.4688,0,0.70128,0.02304,0.0792,0.13392,0.0864,0,-0.0864
2005/1/3 11:45,1.47168,0,1.18512,0.02592,0.45936,0.14688,1.48176,0,-0.36144
2005/1/3 12:00,1.26432,0,1.01664,0.0216,0.00864,0.14976,0.1008,0,-0.10368
2005/1/3 12:15,1.18512,0,1.31616,0.0216,0.0432,0.14256,0.09936,0,-0.10368
2005/1/3 12:30,1.05984,0,1.4256,0.02592,0.45504,0.144,0.10224,0,-0.14976
2005/1/3 12:45,1.14336,0,1.41552,0.0216,0.06048,0.13824,0.08496,0,-0.08784
2005/1/3 13:00,0.91872,0,1.18224,0.32832,0.11232,0.13968,0.12096,0,-0.14256
2005/1/3 13:15,1.02528,0,1.06704,0.02736,0.45936,0.1368,0.08928,0,-0.13536
2005/1/3 13:30,0.89856,0,1.20384,0.0216,0.03744,0.1368,0.08928,0,-0.07344
2005/1/3 13:45,0.89136,0,0.82656,0.0216,0.05184,0.28368,0.12384,0,-0.08208
2005/1/3 14:00,1.43712,0,0.93888,0.0288,0.46656,0.4968,0.09216,0,-0.1944
2005/1/3 14:15,0.74016,0,0.88128,0.0216,0.05616,0.4464,0.09072,0,-0.1152
2005/1/3 14:30,0.39888,0,1.11456,0.0216,0.04464,0.13968,0.08496,0,-0.04176
2005/1/3 14:45,0.3744,0,1.04112,0.03024,0.45648,0.13968,0.12096,0,-0.07776
2005/1/3 15:00,0.33696,0,1.0944,0.21456,0.072,0.13968,0.08784,0,-0.04752
2005/1/3 15:15,0.35424,0,1.10592,0.0216,0.01728,0.14256,0.08928,0,-0.072
2005/1/3 15:30,0.31968,0,1.1592,0.02592,0.46512,0.14832,0.09072,0,-0.0936
2005/1/3 15:45,0.38016,0,1.12176,0.02304,0.0936,0.144,0.0864,0,-0.03456
2005/1/3 16:00,2.63808,0,1.29744,0.0216,0,0.24192,0.08928,0,-0.02448
2005/1/3 16:15,1.22832,0,1.16208,0.02736,0.45648,0.24768,0.08496,0,-0.1224
2005/1/3 16:30,2.03328,0,1.18944,0.02448,0.1224,0.2448,0.11232,0,-0.14256
2005/1/3 16:45,2.2104,0,1.57824,0.0216,0,0.36576,0.08928,0,-0.21312
2005/1/3 17:00,1.80144,0,1.67328,0.0288,0.41184,0.5832,0.09648,0,-0.28224
2005/1/3 17:15,1.7856,0,1.64736,0.02304,0.13248,0.396,0.09504,0,-0.22176
2005/1/3 17:30,0.79488,0,1.35504,0.0216,0,0.3456,0.12816,0,-0.12096
2005/1/3 17:45,0.33264,0,1.22832,0.02736,0.396,0.3456,0.09216,0,-0.11376
2005/1/3 18:00,0.88416,0,1.37952,0.02448,0.15552,0.3456,0.08784,0,-0.14112
2005/1/3 18:15,1.90224,0,1.46448,0.0216,0,0.3456,0.08208,0,-0.23184
2005/1/3 18:30,3.20256,0,1.58832,0.02592,0.37296,0.3456,0.09216,0,-0.21744
2005/1/3 18:45,2.27952,0,1.7568,0.14976,0.24336,0.3456,0.10368,0,-0.18144
2005/1/3 19:00,2.22768,0,2.10528,0.0216,0,0.3456,0.12384,0,-0.13392
2005/1/3 19:15,2.06928,0,2.38032,0.02304,0.30384,0.42048,0.08352,0,-0.20304
2005/1/3 19:30,2.25216,0,2.39904,0.02736,0.3024,0.5688,0.08208,0,-0.21888
2005/1/3 19:45,1.88208,0,2.02896,0.0216,0,0.76176,0.0864,0,-0.18288
2005/1/3 20:00,1.6704,0,0.75312,0.02304,0.25056,0.89424,0.08784,0,-0.15696
2005/1/3 20:15,1.74816,0,1.0152,0.02592,0.32112,0.6408,0.1152,0,-0.11664
2005/1/3 20:30,3.71808,0,1.79424,0.0216,0,0.34992,0.08496,0,-0.26928
2005/1/3 20:45,10.7064,0,2.30976,0.02592,0.21456,0.3672,0.08496,0,-0.79776
2005/1/3 21:00,12.4992,0,1.9656,0.02304,0.33696,0.3672,0.08784,0,-0.7488
2005/1/3 21:15,10.14912,0,2.03328,0.0216,0,0.3672,0.0864,0,-0.49824
2005/1/3 21:30,8.35776,0,2.49984,0.02592,0.21456,0.3672,0.1224,0,-0.51264
2005/1/3 21:45,7.07184,0,2.94912,0.02304,0.32544,0.3672,0.08352,0,-0.5976
2005/1/3 22:00,5.90544,0,3.02832,0.0216,0,0.3672,0.08352,0,-0.57168
2005/1/3 22:15,5.02992,0,3.02544,0.02736,0.21888,0.3672,0.08928,0,-0.5112
2005/1/3 22:30,1.5336,0,2.1168,0.02592,0.31536,0.54288,0.0864,0,-0.27792
2005/1/3 22:45,2.67552,0,2.08368,0.0216,0,0.5544,0.39888,0,-0.2664
2005/1/3 23:00,1.68192,0,1.656,0.02736,0.24624,0.2376,1.06128,0,-0.20736
2005/1/3 23:15,1.22976,0,1.41984,0.02592,0.27648,0.30096,0.10944,0,-0.1656
2005/1/3 23:30,1.13616,0,1.45728,0.0216,0,0.5616,0.09216,0,-0.1512
2005/1/3 23:45,1.0224,0,1.11168,0.02592,0.2664,0.45792,0.09648,0,-0.11232
2005/1/4 0:00,0.99648,0,0.77184,0.02592,0.252,0.46512,0.08928,0,-0.05328
2005/1/4 0:15,1.04544,0,0.75744,0.0216,0,0.55008,0.09216,0,-0.0216
2005/1/4 0:30,1.09584,0,0.7632,0.02304,0.28944,0.51408,0.09216,0,-0.05328
2005/1/4 0:45,1.08,0,0.76752,0.02448,0.22176,0.44208,0.09504,0,-0.04176
2005/1/4 1:00,1.09152,0,0.76032,0.0216,0,0.44928,0.11664,0,-0.03312
2005/1/4 1:15,1.05264,0,0.7632,0.02736,0.2952,0.39744,0.09648,0,-0.0648
2005/1/4 1:30,1.05408,0,0.76176,0.02304,0.21024,0.39888,0.0864,0,-0.04032
2005/1/4 1:45,0.8712,0,0.756,0.0216,0,0.2376,0.09504,0,0
2005/1/4 2:00,1.01808,0,0.75312,0.02592,0.30672,0.35424,0.09072,0,-0.0432
2005/1/4 2:15,0.95616,0,0.7704,0.02592,0.18864,0.29664,0.12096,0,-0.03024
2005/1/4 2:30,0.9144,0,0.75744,0.0216,0,0.2376,0.09072,0,0.01008
2005/1/4 2:45,0.85392,0,0.76176,0.02736,0.30672,0.2376,0.09072,0,-0.03024
2005/1/4 3:00,0.08496,0,0.63792,0.02304,0.18864,0.25056,0.09504,0,0.01584
2005/1/4 3:15,0,0,0.5976,0.0216,0,0.2376,0.09648,0,0.0144
2005/1/4 3:30,0,0,0.26064,0.02592,0.31248,0.2376,0.09072,0,-0.0072
2005/1/4 3:45,0,0,0.27936,0.02736,0.17424,0.2376,0.12528,0,-0.01872
2005/1/4 4:00,0,0,0.26352,0.0216,0,0.2376,0.09936,0,0.0216
2005/1/4 4:15,0,0,0.26208,0.0288,0.30096,0.2376,0.09648,0,-0.01152
2005/1/4 4:30,0,0,0.26496,0.02304,0.14544,0.2376,0.10368,0,0.01584
2005/1/4 4:45,0,0,0.2664,0.0216,0,0.2376,0.09648,0,0.01296
2005/1/4 5:00,0,0,0.27072,0.02448,0.31824,0.2376,0.08784,0,-0.01872
2005/1/4 5:15,0,0,0.26208,0.02304,0.17424,0.2376,0.108,0,0.00144
2005/1/4 5:30,0,0,0.2736,0.0216,0,0.2376,0.12528,0,0.02592
2005/1/4 5:45,0,0,0.27648,0.02592,0.27792,0.2376,0.09504,0,-0.01584
2005/1/4 6:00,0,0,0.29088,0.46944,0.20592,0.2376,0.09504,0,-0.02304
2005/1/4 6:15,0.00288,0,0.33408,2.12832,0,0.2376,0.09936,0,-0.03456
2005/1/4 6:30,0,0,0.2808,0.52992,0.252,0.3168,0.09504,0,-0.0288
2005/1/4 6:45,0,0,0.24192,0.1368,0.22176,0.3456,0.09648,0,-0.00288
2005/1/4 7:00,2.68128,0,0.68544,0.06912,0,0.3528,0.0936,0,-0.00576
2005/1/4 7:15,3.10176,0,1.61856,0.19872,0.21744,0.26352,0.08928,0,-0.16128
2005/1/4 7:30,2.55312,0,1.97712,2.74896,0.32832,0.2376,0.0936,0,-0.11952
2005/1/4 7:45,2.47536,0,2.02752,0.0216,0,0.2376,0.15408,0,-0.14832
2005/1/4 8:00,3.05136,0,2.7288,0.02304,0.18,0.2736,0.90432,0,-0.4248
2005/1/4 8:15,5.69088,0,2.94768,0.02448,0.31824,0.3024,0.10944,0,-0.67824
2005/1/4 8:30,0.78192,0,1.93104,0.0216,0,0.27072,0.09072,0,-0.14256
2005/1/4 8:45,0,0,0.17712,0.02304,0.1944,0.2376,0.08208,0,0.02736
2005/1/4 9:00,0,0,0.18576,0.02448,0.30528,0.2376,0.08784,0,0.00576
2005/1/4 9:15,0,0,0.16848,0.0216,0,0.2376,0.09936,0,0.04608
2005/1/4 9:30,0,0,0.17856,0.02448,0.20736,0.2376,0.10656,0,0.0216
2005/1/4 9:45,0,0,0.1728,0.02592,0.27216,0.2376,0.08784,0,0.02592
2005/1/4 10:00,0,0,0.18,0.0216,0,0.2376,0.08496,0,0.05904
2005/1/4 10:15,0,0,0.17424,0.02448,0.22896,0.2376,0.0864,0,0.02016
2005/1/4 10:30,0,0,0.16848,0.02304,0.26064,0.2376,0.08064,0,0.02736
2005/1/4 10:45,0,0,0.17712,0.0216,0,0.2376,0.0864,0,0.04608
2005/1/4 11:00,0,0,0.16704,0.02736,0.25776,0.2376,0.11808,0,0.03168
2005/1/4 11:15,0,0,0.18288,0.02592,0.23328,0.2376,0.09072,0,0.02736
2005/1/4 11:30,0,0,0.17712,0.0216,0,0.2376,0.08496,0,0.0504
2005/1/4 11:45,0,0,0.16992,0.0216,0.27648,0.2376,0.0864,0,0.0216
2005/1/4 12:00,0,0,0.18,0.02448,0.21888,0.24048,0.08064,0,0.03312
2005/1/4 12:15,0,0,0.17712,0.0216,0,0.2376,0.08496,0,0.0504
2005/1/4 12:30,0,0,0.16848,0.02448,0.30672,0.2376,0.11376,0,0.02592